Hlavní strana
METAR-TAF:

METAR-TAF

Letiště :

Lake City, Florida, Spojené státy americké

zeměpisná šířka: 30-10-55N, zeměpisná délka: 082-34-37W, výška: 61 m

Aktuální stav počasí

Zpráva byla vytvořena před 23 minutami, v 18:15 UTC
Severoseverozápadní vítr 6 kt
Teplota 11°C
Vlhkost vzduchu 94%
Tlak 1015 hPa
Viditelnost: 3.2 km
Zataženo ve výšce 500 ft
déšť

METAR: KLCQ 151815Z AUTO 33006KT 2SM RA OVC005 11/10 A2996 RMK AO2

Čas: 13:38 (18:38 UTC)


TAF: chybějící

Stav a předpovědi počasí z více než 4 000 letišť (zprávy METAR a TAF).

Červené a žluté tečky na mapě představují dostupné meteorologické stanice.

Když kurzor umístíte na tečku, zobrazí se název stanice.

Pak kliknutím zobrazíte stav a předpověď počasí.

Chcete-li změnit mapu, kliknutím na zelené tlačítko se znaménkem +mapu přiblížíte, kliknutím na zelené tlačítko se znaménkem – mapu oddálíte a kliknutím na zelené šipky přejdete na sousední mapy.


METAR-TAF: